|   |  | Asteroid 2009 XL8
					
					
					
					
						
					
					
						
							(Preview) 
						
							
								Orbital elements: 2009 XL8                                                 Earth MOID = 0.0358 AU Epoch 2010 Jan. 4.0 TT = JDT 2455200.5                  MPC M 323.61269              (2000.0)            P               Q n   0.71126963     Peri.  282.87906     -0.94560156     +0.22241701 a   1.2429296      Node   270.34680     -0.11769006     -0.91423247 e   0.4794523      Incl.   13.73459     -0.30329316     -0.33868815 P   1.39           H   22.5           G   0.15           U   8  [...     | Blobrana | 2 |  |  | 
		
			
			
				
				
					|   |  | Asteroid 2005 WX
					
					
					
					
						
					
					
						
							(Preview) 
						
							
								The 11 - 24 metre wide asteroid 2005 WX will make a close pass (58.4 lunar distances, 0.1501 AU), travelling at 9.66 km/second, to the Earth-Moon system on the 28th December, 2009.  See more  The Lunar Distance (LD), the dista...            | Blobrana | 1 |  |  | 
		
			
			
				
				
					|   |  | Asteroid 2006 HZ5
					
					
					
					
						
					
					
						
							(Preview) 
						
							
								The 32 - 71 metre wide asteroid 2006 HZ5 will make a close pass (63.9 lunar distances, 0.1642 AU), travelling at 8.65 km/second, to the Earth-Moon system on the 27th December, 2009.   See more   The Lunar Distance (LD), the dis...            | Blobrana | 1 |  |  | 
		
			
			
				
				
					|   |  | Asteroid 2004 XG29
					
					
					
					
						
					
					
						
							(Preview) 
						
							
								The 22 - 50 metre wide asteroid 2004 XG29 will make a close pass (38.6 lunar distances, 0.0991 AU), travelling at 8.35 km/second, to the Earth-Moon system on the 25th December, 2009.  See more   The Lunar Distance (LD), the d...            | Blobrana | 1 |  |  | 
		
			
			
				
				
					|   |  | Asteroid 2006 SV134
					
					
					
					
						
					
					
						
							(Preview) 
						
							
								Orbital elements: 2006 SV134                                               Earth MOID = 0.1297 AU Epoch 2010 Jan. 4.0 TT = JDT 2455200.5                  MPC M 146.48455              (2000.0)            P               Q n   0.38624718     Peri.   64.30305     +0.16300275     +0.96119164 a   1.8673505      Node   217.30221     -0.98441064     +0.14333621 e   0.4803203      Incl.   21.54784     -0.06607412     +0.23572305 P   2.55           H   18.9           G   0.15           U   2...        | Blobrana | 0 |  |  | 
		
			
			
				
				
					|   |   | Asteroid 2009 WX51
					
					
					
					
						
					
					
						
							(Preview) 
						
							
								Orbital elements: 2009 WX51                                           PHA, Earth MOID = 0.0156 AU Epoch 2010 Jan. 4.0 TT = JDT 2455200.5                  MPC M 354.89727              (2000.0)            P               Q n   0.18618189     Peri.  117.02463     -0.85364522     -0.51283392 a   3.0374637      Node    32.35891     +0.39691489     -0.75369879 e   0.7340858      Incl.    9.79526     +0.33726608     -0.41102251 P   5.29           H   20.0           G   0.15...                | Blobrana | 8 |  |  | 
		
			
			
				
				
					|   |  | Asteroid 2009 YD7
					
					
					
					
						
					
					
						
							(Preview) 
						
							
								Orbital elements: 2009 YD7 Epoch 2009 Nov. 25.0 TT = JDT 2455160.5                 MPC M 358.90326              (2000.0)            P               Q n   0.00073357     Peri.  326.81444     -0.11145727     -0.90326797 a 121.7611112      Node   125.99288     +0.98624346     -0.15175557 e   0.8900669      Incl.   30.80488     +0.12207016     +0.40134428 P1344              H    8.7           G   0.15 From 12 observations 2...     | Blobrana | 1 |  |  | 
		
			
			
				
				
					|   |   | Asteroid 2007 YV56
					
					
					
					
						
					
					
						
							(Preview) 
						
							
								Orbital elements: 2007 YV56                                           PHA, Earth MOID = 0.0052 AU Epoch 2010 Jan. 4.0 TT = JDT 2455200.5                  MPC M  33.07750              (2000.0)            P               Q n   0.49833099     Peri.  265.52110     +0.98423687     -0.14142458 a   1.5756416      Node   102.58301     +0.17130466     +0.91160689 e   0.6220837      Incl.    6.24649     -0.04396009     +0.38596887 P   1.98           H   21.0           G   0.15...                 | Blobrana | 0 |  |  | 
		
			
			
				
				
					|   |  | Asteroid 2009 XO2
					
					
					
					
						
					
					
						
							(Preview) 
						
							
								Orbital elements: 2009 XO2                                                 Earth MOID = 0.0194 AU Epoch 2010 Jan. 4.0 TT = JDT 2455200.5                  MPC M 359.83392              (2000.0)            P               Q n   0.36628547     Peri.   15.59146     -0.28147249     -0.93435105 a   1.9345929      Node    91.14505     +0.85536608     -0.34753064 e   0.4871600      Incl.   12.62608     +0.43488173     +0.07880718 P   2.69           H   23.4           G   0.15           U   7  [ur...     | Blobrana | 2 |  |  | 
		
			
			
				
				
					|   |   | Asteroid 2009 XT6
					
					
					
					
						
					
					
						
							(Preview) 
						
							
								Orbital elements: 2009 XT6                                            PHA, Earth MOID = 0.0030 AU Epoch 2010 Jan. 4.0 TT = JDT 2455200.5                  MPC M  22.89226              (2000.0)            P               Q n   0.31527129     Peri.   80.70466     +0.96593233     +0.23847688 a   2.1380266      Node   265.45025     -0.25876790     +0.88440710 e   0.7656662      Incl.    5.78720     -0.00372982     +0.40118931 P   3.13           H   19.7           G   0.15           U   9...      | Blobrana | 8 |  |  | 
		
			
			
				
				
					|   |  | Asteroid 2003 YL118
					
					
					
					
						
					
					
						
							(Preview) 
						
							
								The 130 - 300 metre wide asteroid 2003 YL118 will make a close pass (13.2 lunar distances, 0.0338 AU), travelling at 16.57 km/second, to the Earth-Moon system on the 22nd December, 2009.  See more  The Lunar Distance (LD)...              | Blobrana | 1 |  |  | 
		
			
			
				
				
					|   |  | Asteroid 2006 WS195
					
					
					
					
						
					
					
						
							(Preview) 
						
							
								Orbital elements: 2006 WS195 Epoch 2010 Jan. 4.0 TT = JDT 2455200.5                  MPC M  70.42719              (2000.0)            P               Q n   0.00394760     Peri.  232.96763     +0.31851620     +0.81766332 a  39.6503508      Node    62.55446     -0.60282883     +0.56514850 e   0.2420034      Incl.   32.70923     -0.73153594     -0.10969904 P 250              H    8.2           G   0.15           U   5  [url=http://www.cfa....     | Blobrana | 0 |  |  | 
		
			
			
				
				
					|   |  | Asteroid 2009 YU6
					
					
					
					
						
					
					
						
							(Preview) 
						
							
								Orbital elements: 2009 YU6                                                 Earth MOID = 0.0821 AU Epoch 2010 Jan. 4.0 TT = JDT 2455200.5                  MPC M  27.28620              (2000.0)            P               Q n   0.33238256     Peri.  291.79150     +0.89706833     -0.38983604 a   2.0640041      Node    91.65951     +0.44147137     +0.81117565 e   0.5627690      Incl.   12.01483     -0.01927271     +0.43591503 P   2.97           H   21.5           G   0.15           U   9  [ur...     | Blobrana | 0 |  |  | 
		
			
			
				
				
					|   |  | Asteroid 2009 YQ
					
					
					
					
						
					
					
						
							(Preview) 
						
							
								Orbital elements: 2009 YQ                                                  Earth MOID = 0.0702 AU Epoch 2010 Jan. 4.0 TT = JDT 2455200.5                  MPC M 337.64820              (2000.0)            P               Q n   0.39934137     Peri.  306.71271     -0.85797620     +0.49476579 a   1.8263045      Node   263.32282     -0.41571346     -0.82673212 e   0.6382049      Incl.    7.99502     -0.30176011     -0.26780742 P   2.47           H   20.6           G   0.15           U   9 [ur...            | Blobrana | 1 |  |  | 
		
			
			
				
				
					|   |  | Asteroid 2009 YP
					
					
					
					
						
					
					
						
							(Preview) 
						
							
								Orbital elements: 2009 YP                                                  Earth MOID = 0.0509 AU Epoch 2010 Jan. 4.0 TT = JDT 2455200.5                  MPC M 163.24041              (2000.0)            P               Q n   1.33377871     Peri.  202.55434     +0.31274540     +0.93384849 a   0.8173603      Node    86.02271     -0.84276381     +0.35709299 e   0.4270859      Incl.   10.01828     -0.43810897     -0.02028772 P   0.74           H   24.0           G   0.15           U   9 [ur...     | Blobrana | 2 |  |  |